Weather History for Jacksonville Craig, FL

Change the Weather History Date:

Saturday, March 16, 2013

  Actual Average Record
Temperature  
Mean Temperature 66 °F -  
Max Temperature 81 °F 70 °F 86 °F (2002)
Min Temperature 53 °F 52 °F 35 °F (1999)
Cooling Degree Days 2    
Growing Degree Days 16 (Base 50)    
Moisture  
Dew Point 43 °F    
Average Humidity 46    
Maximum Humidity 72    
Minimum Humidity 24    
Precipitation  
Precipitation 0.00 in - - ()
Sea Level Pressure  
Sea Level Pressure 30.10 in    
Wind  
Wind Speed 7 mph (WSW)    
Max Wind Speed 15 mph    
Max Gust Speed 23 mph    
Visibility 10 miles    
Events      
Averages and records for this station are not official NWS values.
T = Trace of Precipitation, MM = Missing Value Source: NWS Daily Summary

Daily Weather History Graph

Daily Weather History Graph

Search for Another Location

Airport:

Trip Planner

Search our weather history database for the weather conditions in past years. The results will help you decide how hot, cold, wet, or windy it might be!

Date:

Astronomy

Mar. 16, 2013 Rise Set
Actual Time 7:34 AM EDT 7:35 PM EDT
Civil Twilight 7:10 AM EDT 7:59 PM EDT
Nautical Twilight 6:42 AM EDT 8:26 PM EDT
Astronomical Twilight 6:14 AM EDT 8:55 PM EDT
Moon 10:24 AM EDT (3/16) No Moon Set
Length of Visible Light 12h 48m
Length of Day
12h 00m
Waxing Crescent, 23% of the Moon is Illuminated
Mar 16
Waxing Crescent
Mar 19
First Quarter
Mar 27
Full
Apr 3
Last Quarter
Apr 10
New

Hourly Weather History & Observations

Time (EDT) Temp. Dew Point Humidity Pressure Visibility Wind Dir Wind Speed Gust Speed Precip Events Conditions
12:53 AM 53.1 °F 39.9 °F 61% 30.17 in 10.0 mi SW 3.5 mph - N/A   Clear
1:53 AM 55.9 °F 39.0 °F 53% 30.15 in 10.0 mi West 4.6 mph - N/A   Clear
2:53 AM 55.0 °F 41.0 °F 59% 30.13 in 10.0 mi WSW 5.8 mph - N/A   Clear
3:53 AM 54.0 °F 42.1 °F 64% 30.13 in 10.0 mi WSW 4.6 mph - N/A   Clear
4:53 AM 55.9 °F 42.1 °F 60% 30.12 in 10.0 mi West 8.1 mph - N/A   Clear
5:53 AM 55.9 °F 43.0 °F 62% 30.12 in 10.0 mi West 6.9 mph - N/A   Clear
6:53 AM 54.0 °F 44.1 °F 69% 30.12 in 10.0 mi West 5.8 mph - N/A   Clear
7:53 AM 54.0 °F 45.0 °F 72% 30.14 in 10.0 mi West 4.6 mph - N/A   Clear
8:53 AM 59.0 °F 46.0 °F 62% 30.15 in 10.0 mi West 6.9 mph - N/A   Clear
9:53 AM 62.1 °F 46.0 °F 56% 30.16 in 10.0 mi West 8.1 mph 17.3 mph N/A   Clear
10:53 AM 66.9 °F 46.0 °F 47% 30.15 in 10.0 mi WSW 15.0 mph 19.6 mph N/A   Clear
11:53 AM 71.1 °F 46.0 °F 41% 30.14 in 10.0 mi West 9.2 mph 18.4 mph N/A   Clear
12:53 PM 73.0 °F 45.0 °F 37% 30.12 in 10.0 mi WSW 11.5 mph - N/A   Clear
1:53 PM 77.0 °F 45.0 °F 32% 30.09 in 10.0 mi West 10.4 mph 19.6 mph N/A   Clear
2:53 PM 78.1 °F 44.1 °F 30% 30.06 in 10.0 mi West 10.4 mph 19.6 mph N/A   Clear
3:53 PM 80.1 °F 42.1 °F 26% 30.03 in 10.0 mi West 10.4 mph 23.0 mph N/A   Clear
4:53 PM 80.1 °F 39.9 °F 24% 30.01 in 10.0 mi West 12.7 mph 20.7 mph N/A   Clear
5:53 PM 80.1 °F 41.0 °F 25% 30.00 in 10.0 mi West 13.8 mph 19.6 mph N/A   Clear
6:53 PM 78.1 °F 39.9 °F 25% 30.01 in 10.0 mi WSW 13.8 mph - N/A   Clear
7:53 PM 75.0 °F 42.1 °F 31% 30.03 in 10.0 mi West 6.9 mph - N/A   Clear
8:53 PM 72.0 °F 44.1 °F 37% 30.05 in 10.0 mi WSW 9.2 mph 17.3 mph N/A   Clear
9:53 PM 66.9 °F 44.1 °F 44% 30.06 in 10.0 mi SW 8.1 mph - N/A   Clear
10:53 PM 66.9 °F 41.0 °F 39% 30.09 in 10.0 mi WSW 6.9 mph - N/A   Clear
11:53 PM 64.9 °F 41.0 °F 42% 30.09 in 10.0 mi WSW 8.1 mph - N/A   Clear